| time (UTC) | temp C | wind direction | speed KPH | gust KPH | rain 1hr cm | rain 24hr cm | rain mn cm | humidity % | barometer mb |
| 20260504201730 | 18 | 73 | 4.8 | 12.9 | 0.00 | 0.00 | 0.00 | 43 | 1007.4 |
| 20260504201227 | 19 | 12 | 8.0 | 22.5 | 0.00 | 0.00 | 0.00 | 42 | 1007.5 |
| 20260504200724 | 18 | 306 | 4.8 | 9.7 | 0.00 | 0.00 | 0.00 | 42 | 1007.6 |
| 20260504200220 | 18 | 308 | 6.4 | 16.1 | 0.00 | 0.00 | 0.00 | 42 | 1007.8 |
| 20260504195717 | 18 | 23 | 1.6 | 9.7 | 0.00 | 0.00 | 0.00 | 42 | 1007.8 |
| 20260504195213 | 18 | 343 | 1.6 | 9.7 | 0.00 | 0.00 | 0.00 | 42 | 1007.8 |
| 20260504194710 | 18 | 84 | 4.8 | 14.5 | 0.00 | 0.00 | 0.00 | 42 | 1007.5 |
| 20260504194206 | 18 | 66 | 9.7 | 12.9 | 0.00 | 0.00 | 0.00 | 40 | 1008.0 |
| 20260504193702 | 18 | 283 | 6.4 | 16.1 | 0.00 | 0.00 | 0.00 | 41 | 1007.9 |
| 20260504193200 | 19 | 83 | 3.2 | 22.5 | 0.00 | 0.00 | 0.00 | 40 | 1008.1 |
| 20260504192658 | 19 | 249 | 6.4 | 20.9 | 0.00 | 0.00 | 0.00 | 40 | 1008.0 |
| 20260504192156 | 19 | 44 | 6.4 | 20.9 | 0.00 | 0.00 | 0.00 | 40 | 1008.0 |
| 20260504191654 | 19 | 270 | 4.8 | 12.9 | 0.00 | 0.00 | 0.00 | 41 | 1008.1 |
| 20260504191150 | 18 | 217 | 3.2 | 11.3 | 0.00 | 0.00 | 0.00 | 41 | 1008.3 |
| 20260504190646 | 18 | 67 | 6.4 | 16.1 | 0.00 | 0.00 | 0.00 | 43 | 1008.3 |
| 20260504190143 | 18 | 330 | 16.1 | 25.7 | 0.00 | 0.00 | 0.00 | 43 | 1008.2 |
| 20260504185639 | 18 | 242 | 4.8 | 11.3 | 0.00 | 0.00 | 0.00 | 45 | 1008.4 |
| 20260504185136 | 18 | 324 | 11.3 | 14.5 | 0.00 | 0.00 | 0.00 | 43 | 1008.3 |
| 20260504184632 | 18 | 36 | 6.4 | 17.7 | 0.00 | 0.00 | 0.00 | 42 | 1008.2 |
| 20260504184127 | 18 | 85 | 8.0 | 27.4 | 0.00 | 0.00 | 0.00 | 44 | 1008.5 |
| 20260504183624 | 18 | 345 | 1.6 | 14.5 | 0.00 | 0.00 | 0.00 | 44 | 1008.4 |
| 20260504183122 | 18 | 111 | 4.8 | 20.9 | 0.00 | 0.00 | 0.00 | 43 | 1008.6 |
| 20260504182620 | 17 | 13 | 6.4 | 22.5 | 0.00 | 0.00 | 0.00 | 44 | 1008.6 |
| 20260504182117 | 18 | 142 | 9.7 | 24.1 | 0.00 | 0.00 | 0.00 | 44 | 1008.6 |
| 20260504181614 | 17 | 112 | 3.2 | 14.5 | 0.00 | 0.00 | 0.00 | 45 | 1008.6 |
| 20260504181111 | 18 | 49 | 6.4 | 20.9 | 0.00 | 0.00 | 0.00 | 44 | 1008.7 |
| 20260504180610 | 18 | 181 | 4.8 | 27.4 | 0.00 | 0.00 | 0.00 | 43 | 1008.9 |
| 20260504180109 | 17 | 284 | 4.8 | 12.9 | 0.00 | 0.00 | 0.00 | 46 | 1008.8 |
| 20260504175606 | 17 | 346 | 1.6 | 17.7 | 0.00 | 0.00 | 0.00 | 46 | 1008.9 |
| 20260504175102 | 17 | 89 | 6.4 | 6.4 | 0.00 | 0.00 | 0.00 | 45 | 1008.7 |
| 20260504174601 | 17 | 120 | 8.0 | 24.1 | 0.00 | 0.00 | 0.00 | 45 | 1009.0 |
| 20260504174057 | 17 | 290 | 3.2 | 9.7 | 0.00 | 0.00 | 0.00 | 44 | 1008.9 |
| 20260504173554 | 17 | 19 | 4.8 | 14.5 | 0.00 | 0.00 | 0.00 | 46 | 1008.7 |
| 20260504173052 | 17 | 290 | 11.3 | 20.9 | 0.00 | 0.00 | 0.00 | 45 | 1009.1 |
| 20260504172547 | 17 | 153 | 6.4 | 20.9 | 0.00 | 0.00 | 0.00 | 45 | 1008.8 |
| 20260504172044 | 17 | 313 | 14.5 | 25.7 | 0.00 | 0.00 | 0.00 | 43 | 1009.1 |
| 20260504171541 | 17 | 47 | 1.6 | 16.1 | 0.00 | 0.00 | 0.00 | 43 | 1009.1 |
| 20260504171038 | 16 | 358 | 4.8 | 22.5 | 0.00 | 0.00 | 0.00 | 46 | 1008.9 |
| 20260504170534 | 16 | 279 | 4.8 | 14.5 | 0.00 | 0.00 | 0.00 | 44 | 1009.0 |
| 20260504150918 | 13 | 328 | 4.8 | 11.3 | 0.00 | 0.00 | 0.00 | 47 | 1010.3 |
| 20260504150414 | 13 | 63 | 6.4 | 14.5 | 0.00 | 0.00 | 0.00 | 48 | 1010.3 |
| 20260504140841 | 11 | 284 | 3.2 | 6.4 | 0.00 | 0.00 | 0.00 | 48 | 1010.5 |
| 20260504140336 | 11 | 54 | 4.8 | 20.9 | 0.00 | 0.00 | 0.00 | 47 | 1010.6 |
| 20260504130806 | 11 | 303 | 4.8 | 17.7 | 0.00 | 0.00 | 0.00 | 45 | 1010.9 |
| 20260504130302 | 11 | 244 | 4.8 | 20.9 | 0.00 | 0.00 | 0.00 | 46 | 1010.8 |
| 20260504120225 | 9 | 253 | 0.0 | 9.7 | 0.00 | 0.00 | 0.00 | 49 | 1010.8 |
| 20260504110646 | 7 | 87 | 6.4 | 6.4 | 0.00 | 0.00 | 0.00 | 53 | 1010.9 |
| 20260504110143 | 7 | 323 | 4.8 | 4.8 | 0.00 | 0.00 | 0.00 | 55 | 1011.2 |
| 20260504100609 | 5 | 287 | 1.6 | 3.2 | 0.00 | 0.00 | 0.00 | 61 | 1010.8 |
| 20260504100107 | 5 | 201 | 1.6 | 3.2 | 0.00 | 0.00 | 0.00 | 61 | 1010.7 |
| 20260504082002 | 5 | 172 | 6.4 | 6.4 | 0.00 | 0.00 | 0.00 | 63 | 1011.2 |
| 20260504081500 | 5 | 90 | 6.4 | 9.7 | 0.00 | 0.00 | 0.00 | 63 | 1011.2 |
| 20260504080955 | 5 | 174 | 3.2 | 4.8 | 0.00 | 0.00 | 0.00 | 63 | 1011.3 |
| 20260504080452 | 5 | 284 | 0.0 | 4.8 | 0.00 | 0.00 | 0.00 | 63 | 1011.3 |
| 20260504050305 | 6 | 95 | 3.2 | 4.8 | 0.00 | 0.00 | 0.00 | 59 | 1011.3 |
| 20260504045803 | 6 | 48 | 0.0 | 4.8 | 0.00 | 0.00 | 0.00 | 59 | 1011.4 |
| 20260504045304 | 6 | 258 | 0.0 | 1.6 | 0.00 | 0.00 | 0.00 | 59 | 1011.4 |
| 20260504044800 | 6 | 37 | 1.6 | 6.4 | 0.00 | 0.00 | 0.00 | 59 | 1011.4 |
| 20260504044257 | 5 | 224 | 0.0 | 4.8 | 0.00 | 0.00 | 0.00 | 60 | 1011.4 |
| 20260504043754 | 5 | 119 | 0.0 | 3.2 | 0.00 | 0.00 | 0.00 | 60 | 1011.4 |
| 20260504043251 | 5 | 209 | 0.0 | 1.6 | 0.00 | 0.00 | 0.00 | 60 | 1011.4 |
| 20260504042749 | 6 | 94 | 0.0 | 1.6 | 0.00 | 0.00 | 0.00 | 60 | 1011.3 |
| 20260504042245 | 5 | 92 | 0.0 | 0.0 | 0.00 | 0.00 | 0.00 | 60 | 1011.3 |
| 20260504041741 | 6 | 83 | 1.6 | 4.8 | 0.00 | 0.00 | 0.00 | 59 | 1011.3 |
| 20260504041237 | 6 | 82 | 1.6 | 3.2 | 0.00 | 0.00 | 0.00 | 58 | 1011.0 |
| 20260504040734 | 6 | 129 | 1.6 | 3.2 | 0.00 | 0.00 | 0.00 | 59 | 1011.0 |
| 20260504040231 | 6 | 138 | 0.0 | 1.6 | 0.00 | 0.00 | 0.00 | 59 | 1011.2 |
| 20260504035727 | 6 | 269 | 1.6 | 1.6 | 0.00 | 0.00 | 0.00 | 60 | 1011.3 |
| 20260504035225 | 6 | 139 | 0.0 | 1.6 | 0.00 | 0.00 | 0.00 | 58 | 1011.2 |
| 20260504034722 | 6 | 277 | 0.0 | 4.8 | 0.00 | 0.00 | 0.00 | 59 | 1011.2 |
| 20260504034219 | 6 | 54 | 0.0 | 1.6 | 0.00 | 0.00 | 0.00 | 59 | 1011.2 |
| 20260504033717 | 6 | 76 | 0.0 | 4.8 | 0.00 | 0.00 | 0.00 | 58 | 1011.2 |
| 20260504033214 | 6 | 85 | 1.6 | 3.2 | 0.00 | 0.00 | 0.00 | 58 | 1011.2 |
| 20260504032711 | 6 | 74 | 1.6 | 3.2 | 0.00 | 0.00 | 0.00 | 57 | 1011.3 |
| 20260504032208 | 6 | 75 | 0.0 | 1.6 | 0.00 | 0.00 | 0.00 | 59 | 1011.2 |
| 20260504031705 | 6 | 80 | 1.6 | 1.6 | 0.00 | 0.00 | 0.00 | 58 | 1011.2 |
| 20260504031201 | 6 | 193 | 0.0 | 3.2 | 0.00 | 0.00 | 0.00 | 57 | 1011.4 |
| 20260504030658 | 6 | 98 | 0.0 | 3.2 | 0.00 | 0.00 | 0.00 | 57 | 1011.0 |
| 20260504030155 | 6 | 81 | 0.0 | 4.8 | 0.00 | 0.00 | 0.00 | 56 | 1011.3 |
| 20260504025651 | 6 | 308 | 0.0 | 1.6 | 0.00 | 0.00 | 0.00 | 57 | 1011.4 |
| 20260504025148 | 6 | 124 | 0.0 | 0.0 | 0.00 | 0.00 | 0.00 | 57 | 1011.2 |
| 20260504024646 | 6 | 352 | 0.0 | 1.6 | 0.00 | 0.00 | 0.00 | 56 | 1011.5 |
| 20260504024142 | 6 | 111 | 3.2 | 3.2 | 0.00 | 0.00 | 0.00 | 55 | 1011.5 |
| 20260504023639 | 6 | 58 | 0.0 | 4.8 | 0.00 | 0.00 | 0.00 | 56 | 1011.4 |
| 20260504023135 | 6 | 42 | 0.0 | 0.0 | 0.00 | 0.00 | 0.00 | 58 | 1011.4 |
| 20260504022631 | 6 | 74 | 1.6 | 3.2 | 0.00 | 0.00 | 0.00 | 55 | 1011.5 |
| 20260504022127 | 6 | 27 | 0.0 | 3.2 | 0.00 | 0.00 | 0.00 | 55 | 1011.4 |
| 20260504021625 | 6 | 181 | 0.0 | 1.6 | 0.00 | 0.00 | 0.00 | 56 | 1011.3 |
| 20260504021121 | 6 | 355 | 0.0 | 0.0 | 0.00 | 0.00 | 0.00 | 57 | 1011.4 |
| 20260504020619 | 6 | 95 | 1.6 | 1.6 | 0.00 | 0.00 | 0.00 | 55 | 1011.3 |
| 20260504020115 | 6 | 75 | 0.0 | 3.2 | 0.00 | 0.00 | 0.00 | 55 | 1011.0 |
| 20260504015611 | 6 | 72 | 0.0 | 1.6 | 0.00 | 0.00 | 0.00 | 54 | 1011.4 |
| 20260504015107 | 6 | 91 | 0.0 | 3.2 | 0.00 | 0.00 | 0.00 | 54 | 1011.2 |
| 20260504014603 | 6 | 79 | 0.0 | 1.6 | 0.00 | 0.00 | 0.00 | 54 | 1011.0 |
| 20260504014101 | 6 | 235 | 0.0 | 3.2 | 0.00 | 0.00 | 0.00 | 55 | 1011.3 |
| 20260504013558 | 7 | 130 | 0.0 | 3.2 | 0.00 | 0.00 | 0.00 | 53 | 1011.3 |
| 20260504013055 | 7 | 71 | 0.0 | 1.6 | 0.00 | 0.00 | 0.00 | 55 | 1011.3 |
| 20260504012552 | 6 | 86 | 0.0 | 4.8 | 0.00 | 0.00 | 0.00 | 54 | 1011.3 |
| 20260504012050 | 7 | 355 | 0.0 | 1.6 | 0.00 | 0.00 | 0.00 | 53 | 1011.2 |
| 20260504011547 | 6 | 108 | 0.0 | 0.0 | 0.00 | 0.00 | 0.00 | 53 | 1010.9 |
| 20260504011043 | 6 | 88 | 0.0 | 1.6 | 0.00 | 0.00 | 0.00 | 52 | 1011.2 |
| 20260504010539 | 7 | 86 | 0.0 | 0.0 | 0.00 | 0.00 | 0.00 | 52 | 1010.9 |
| 20260504010035 | 7 | 118 | 0.0 | 0.0 | 0.00 | 0.00 | 0.00 | 52 | 1010.9 |
| 20260504005532 | 7 | 355 | 0.0 | 0.0 | 0.00 | 0.00 | 0.00 | 52 | 1010.9 |
| 20260504005030 | 7 | 115 | 3.2 | 3.2 | 0.00 | 0.00 | 0.00 | 52 | 1010.8 |
| 20260504004527 | 7 | 62 | 0.0 | 1.6 | 0.00 | 0.00 | 0.00 | 51 | 1010.7 |
| 20260504004024 | 8 | 82 | 1.6 | 3.2 | 0.00 | 0.00 | 0.00 | 50 | 1010.8 |
| 20260504003520 | 8 | 103 | 3.2 | 6.4 | 0.00 | 0.00 | 0.00 | 48 | 1010.6 |
| 20260504003017 | 8 | 130 | 3.2 | 3.2 | 0.00 | 0.00 | 0.00 | 48 | 1010.6 |
| 20260504002514 | 8 | 103 | 3.2 | 4.8 | 0.00 | 0.00 | 0.00 | 47 | 1010.4 |
| 20260504002011 | 8 | 97 | 0.0 | 3.2 | 0.00 | 0.00 | 0.00 | 47 | 1010.5 |
| 20260504001509 | 8 | 114 | 4.8 | 6.4 | 0.00 | 0.00 | 0.00 | 46 | 1010.4 |
| 20260504001005 | 9 | 80 | 0.0 | 4.8 | 0.00 | 0.00 | 0.00 | 46 | 1010.5 |
| 20260504000502 | 9 | 79 | 0.0 | 9.7 | 0.00 | 0.00 | 0.00 | 46 | 1010.4 |
| 20260503235959 | 9 | 71 | 3.2 | 6.4 | 0.00 | 0.00 | 0.00 | 45 | 1010.4 |
| 20260503235457 | 9 | 96 | 4.8 | 6.4 | 0.00 | 0.00 | 0.00 | 45 | 1010.3 |
| 20260503234954 | 10 | 99 | 4.8 | 9.7 | 0.00 | 0.00 | 0.00 | 43 | 1010.4 |
| 20260503234452 | 10 | 89 | 1.6 | 11.3 | 0.00 | 0.00 | 0.00 | 44 | 1010.3 |
| 20260503233950 | 10 | 62 | 3.2 | 9.7 | 0.00 | 0.00 | 0.00 | 42 | 1010.2 |
| 20260503233446 | 11 | 68 | 8.0 | 12.9 | 0.00 | 0.00 | 0.00 | 41 | 1010.2 |
| 20260503232942 | 11 | 63 | 3.2 | 11.3 | 0.00 | 0.00 | 0.00 | 41 | 1010.3 |
| 20260503232439 | 11 | 126 | 9.7 | 12.9 | 0.00 | 0.00 | 0.00 | 42 | 1010.2 |
| 20260503231937 | 10 | 27 | 3.2 | 9.7 | 0.00 | 0.00 | 0.00 | 43 | 1010.2 |
| 20260503231434 | 10 | 61 | 4.8 | 16.1 | 0.00 | 0.00 | 0.00 | 44 | 1010.3 |
| 20260503230931 | 10 | 51 | 6.4 | 14.5 | 0.00 | 0.00 | 0.00 | 43 | 1010.2 |
| 20260503230427 | 10 | 56 | 4.8 | 9.7 | 0.00 | 0.00 | 0.00 | 43 | 1010.2 |
| 20260503225925 | 10 | 57 | 6.4 | 9.7 | 0.00 | 0.00 | 0.00 | 43 | 1010.3 |
| 20260503225422 | 10 | 65 | 11.3 | 16.1 | 0.00 | 0.00 | 0.00 | 41 | 1010.1 |
| 20260503224917 | 10 | 88 | 9.7 | 14.5 | 0.00 | 0.00 | 0.00 | 42 | 1010.0 |
| 20260503224414 | 10 | 339 | 6.4 | 12.9 | 0.00 | 0.00 | 0.00 | 43 | 1010.1 |
| 20260503223912 | 10 | 81 | 9.7 | 12.9 | 0.00 | 0.00 | 0.00 | 42 | 1010.1 |
| 20260503223410 | 10 | 67 | 8.0 | 14.5 | 0.00 | 0.00 | 0.00 | 43 | 1009.9 |
| 20260503222910 | 10 | 82 | 8.0 | 22.5 | 0.00 | 0.00 | 0.00 | 42 | 1010.0 |
| 20260503222409 | 10 | 316 | 4.8 | 11.3 | 0.00 | 0.00 | 0.00 | 42 | 1009.8 |
| 20260503221907 | 10 | 22 | 6.4 | 11.3 | 0.00 | 0.00 | 0.00 | 43 | 1010.1 |
| 20260503221405 | 10 | 79 | 11.3 | 16.1 | 0.00 | 0.00 | 0.00 | 42 | 1010.2 |
| 20260503220901 | 10 | 80 | 14.5 | 16.1 | 0.00 | 0.00 | 0.00 | 43 | 1010.2 |
| 20260503220358 | 11 | 80 | 12.9 | 16.1 | 0.00 | 0.00 | 0.00 | 42 | 1010.0 |
| 20260503215855 | 11 | 104 | 9.7 | 17.7 | 0.00 | 0.00 | 0.00 | 41 | 1010.2 |
| 20260503215352 | 11 | 139 | 6.4 | 12.9 | 0.00 | 0.00 | 0.00 | 43 | 1010.1 |
| 20260503214849 | 11 | 100 | 14.5 | 16.1 | 0.00 | 0.00 | 0.00 | 43 | 1010.1 |
| 20260503214347 | 10 | 80 | 6.4 | 11.3 | 0.00 | 0.00 | 0.00 | 43 | 1010.1 |
| 20260503213844 | 10 | 87 | 4.8 | 24.1 | 0.00 | 0.00 | 0.00 | 44 | 1010.3 |
| 20260503213341 | 10 | 171 | 8.0 | 17.7 | 0.00 | 0.00 | 0.00 | 44 | 1010.2 |
| 20260503212838 | 10 | 265 | 3.2 | 22.5 | 0.00 | 0.00 | 0.00 | 46 | 1010.0 |
| 20260503212336 | 10 | 87 | 12.9 | 24.1 | 0.00 | 0.00 | 0.00 | 43 | 1010.0 |
| 20260503211833 | 11 | 162 | 6.4 | 14.5 | 0.00 | 0.00 | 0.00 | 42 | 1010.1 |
| 20260503211330 | 11 | 150 | 3.2 | 12.9 | 0.00 | 0.00 | 0.00 | 46 | 1010.0 |
| 20260503210825 | 10 | 68 | 12.9 | 16.1 | 0.00 | 0.00 | 0.00 | 45 | 1010.0 |
| 20260503210322 | 10 | 69 | 4.8 | 12.9 | 0.00 | 0.00 | 0.00 | 47 | 1010.1 |
| 20260503205817 | 10 | 86 | 11.3 | 17.7 | 0.00 | 0.00 | 0.00 | 44 | 1010.0 |
| 20260503205314 | 10 | 49 | 8.0 | 22.5 | 0.00 | 0.00 | 0.00 | 44 | 1010.0 |
| 20260503204811 | 10 | 153 | 4.8 | 17.7 | 0.00 | 0.00 | 0.00 | 45 | 1009.9 |
| 20260503204309 | 10 | 96 | 12.9 | 24.1 | 0.00 | 0.00 | 0.00 | 43 | 1010.1 |
| 20260503203806 | 10 | 72 | 6.4 | 24.1 | 0.00 | 0.00 | 0.00 | 44 | 1010.0 |
| 20260503203303 | 10 | 66 | 9.7 | 16.1 | 0.00 | 0.00 | 0.00 | 44 | 1010.1 |
| 20260503202800 | 10 | 63 | 3.2 | 11.3 | 0.00 | 0.00 | 0.00 | 45 | 1010.0 |
| 20260503202258 | 11 | 83 | 11.3 | 12.9 | 0.00 | 0.00 | 0.00 | 43 | 1010.0 |